Kendall, FL

1:19 PM EDT on May 27, 2018 (GMT -0400)
Kendall-Tamiami Executive

Weather History for KTMB - August, 2014

Change the Weather History Date:

Wednesday, August 20, 2014

  Actual Average Record
Temperature  
Mean Temperature 86 °F -  
Max Temperature 96 °F 91 °F 96 °F (2010)
Min Temperature 77 °F 72 °F 71 °F (1990)
Cooling Degree Days 21    
Growing Degree Days 36 (Base 50)    
Moisture  
Dew Point 75 °F    
Average Humidity 74    
Maximum Humidity 88    
Minimum Humidity 47    
Precipitation  
Precipitation 1.71 in - - ()
Sea Level Pressure  
Sea Level Pressure 30.06 in    
Wind  
Wind Speed 4 mph (South)    
Max Wind Speed 26 mph    
Max Gust Speed 43 mph    
Visibility 8 miles    
Events Rain , Thunderstorm    
Averages and records for this station are not official NWS values.
T = Trace of Precipitation, MM = Missing Value Source: NWS Daily Summary

Daily Weather History Graph

Daily Weather History Graph

Search for Another Location

Airport or City:

Astronomy

Aug. 20, 2014 Rise Set
Actual Time 6:57 AM EDT 7:52 PM EDT
Civil Twilight 6:33 AM EDT 8:16 PM EDT
Nautical Twilight 6:05 AM EDT 8:44 PM EDT
Astronomical Twilight 5:36 AM EDT 9:13 PM EDT
Moon 2:46 AM EDT (8/20) 4:26 PM EDT (8/20)
Length of Visible Light 13h 43m
Length of Day
12h 55m
Waning Crescent, 21% of the Moon is Illuminated
Aug 20
Waning Crescent
Aug 25
New
Sep 2
First Quarter
Sep 8
Full
Sep 15
Last Quarter

Hourly Weather History & Observations

Time (EDT) Temp. Heat Index Dew Point Humidity Pressure Visibility Wind Dir Wind Speed Gust Speed Precip Events Conditions
12:53 AM 82.9 °F 90.2 °F 75.0 °F 77% 30.04 in 10.0 mi Calm Calm - N/A   Clear
1:53 AM 82.9 °F 90.8 °F 75.9 °F 79% 30.01 in 10.0 mi Calm Calm - N/A   Clear
2:53 AM 80.1 °F 85.4 °F 75.9 °F 87% 30.01 in 10.0 mi Calm Calm - N/A   Clear
3:53 AM 79.0 °F - 75.0 °F 88% 30.00 in 10.0 mi Calm Calm - N/A   Clear
4:53 AM 80.1 °F 85.1 °F 75.0 °F 85% 30.01 in 10.0 mi Calm Calm - N/A   Clear
5:53 AM 79.0 °F - 75.0 °F 88% 30.01 in 10.0 mi Calm Calm - N/A   Clear
6:53 AM 79.0 °F - 75.0 °F 88% 30.03 in 10.0 mi Calm Calm - N/A   Clear
7:53 AM 82.0 °F 90.2 °F 77.0 °F 85% 30.05 in 10.0 mi Calm Calm - N/A   Clear
8:53 AM 87.1 °F 97.3 °F 75.9 °F 69% 30.06 in 10.0 mi Calm Calm - N/A   Clear
9:53 AM 90.0 °F 100.2 °F 75.0 °F 61% 30.09 in 10.0 mi Calm Calm - N/A   Clear
10:53 AM 91.0 °F 100.4 °F 73.9 °F 57% 30.09 in 10.0 mi NNE 5.8 mph - N/A   Partly Cloudy
11:53 AM 93.0 °F 101.9 °F 73.0 °F 52% 30.09 in 10.0 mi Calm Calm - N/A   Mostly Cloudy
12:53 PM 95.0 °F 103.2 °F 72.0 °F 47% 30.07 in 10.0 mi East 4.6 mph - N/A   Partly Cloudy
1:46 PM 91.0 °F 101.6 °F 75.0 °F 59% 30.05 in 10.0 mi ESE 8.1 mph - N/A Thunderstorm Mostly Cloudy
1:53 PM 90.0 °F 101.3 °F 75.9 °F 63% 30.06 in 10.0 mi ESE 8.1 mph - N/A Thunderstorm Thunderstorm
2:06 PM 84.0 °F 93.7 °F 77.0 °F 79% 30.07 in 1.8 mi SSW 15.0 mph - 0.18 in Rain , Thunderstorm Heavy Thunderstorms and Rain
2:11 PM 82.0 °F 88.6 °F 75.0 °F 79% 30.07 in 0.8 mi SW 26.5 mph 40.3 mph 0.41 in Rain , Thunderstorm Heavy Thunderstorms and Rain
2:17 PM 80.1 °F 84.2 °F 73.0 °F 79% 30.08 in 0.2 mi WSW 15.0 mph 42.6 mph 0.66 in Rain , Thunderstorm Heavy Thunderstorms and Rain
2:28 PM 79.0 °F - 73.9 °F 84% 30.09 in 0.2 mi WNW 16.1 mph 24.2 mph 1.31 in Rain , Thunderstorm Heavy Thunderstorms and Rain
2:35 PM 77.0 °F - - N/A% 30.09 in 0.5 mi NW 13.8 mph 24.2 mph 1.57 in Rain , Thunderstorm Heavy Thunderstorms and Rain
2:45 PM 77.0 °F - - N/A% 30.08 in 1.0 mi WSW 17.3 mph - 1.71 in Rain , Thunderstorm Heavy Thunderstorms and Rain
2:48 PM 78.8 °F - - N/A% 30.07 in 2.0 mi SW 11.5 mph - 1.71 in Rain , Thunderstorm Light Thunderstorms and Rain
2:53 PM 82.0 °F - - N/A% 30.07 in 9.0 mi SW 11.5 mph - 1.71 in Rain , Thunderstorm Light Thunderstorms and Rain
3:33 PM 81.0 °F - - N/A% 30.07 in 10.0 mi South 5.8 mph - 0.00 in Thunderstorm Scattered Clouds
3:53 PM 82.9 °F - - N/A% 30.06 in 10.0 mi South 3.5 mph - 0.00 in   Partly Cloudy
4:53 PM 89.1 °F 111.4 °F 82.9 °F 82% 30.06 in 10.0 mi South 4.6 mph - N/A   Clear
5:53 PM 90.0 °F 101.3 °F 75.9 °F 63% 30.05 in 10.0 mi ESE 9.2 mph - N/A   Clear
6:53 PM 89.1 °F 97.0 °F 73.0 °F 59% 30.05 in 10.0 mi SE 6.9 mph - N/A   Clear
7:53 PM 86.0 °F 93.8 °F 73.9 °F 67% 30.07 in 10.0 mi ESE 4.6 mph - N/A   Clear
8:53 PM 82.9 °F 90.2 °F 75.0 °F 77% 30.09 in 10.0 mi West 3.5 mph - N/A   Partly Cloudy
9:53 PM 82.9 °F 90.2 °F 75.0 °F 77% 30.09 in 10.0 mi Calm Calm - N/A   Clear
10:53 PM 82.9 °F 90.2 °F 75.0 °F 77% 30.09 in 10.0 mi Calm Calm - N/A   Clear
11:53 PM 82.0 °F 89.4 °F 75.9 °F 82% 30.09 in 10.0 mi Calm Calm - N/A   Clear